Location: Saint André
(43.5594°N, 1.3519°W)
Time: 14:05:48
(UTC+00:00)

BlueWalker 3 - Pass Details

Date: 09 February 2026
Orbit: 451 x 457 km, 53.2° (Epoch: 14 March)

Event Time Altitude Azimuth Distance (km) Brightness Sun altitude
Rises 19:05:11 0° 293° (WNW) 2,460 6.6 -18.1°
Reaches altitude 10° 19:07:46 10° 274° (W) 1,582 5.7 -18.6°
Maximum altitude 19:10:16 18° 229° (SW) 1,168 4.4 -19.0°
Drops below altitude 10° 19:12:45 10° 185° (S) 1,573 4.5 -19.5°
Enters shadow 19:14:14 - 172° (S) 2,048 5.0 -19.8°
